| time (UTC) | temp F | wind direction | speed knots | gust knots | rain 1hr in | rain 24hr in | rain mn in | humidity % | barometer mb |
| 20260505091540 | 50 | 190 | 2.6 | 7.0 | 0.00 | 0.00 | 0.00 | 89 | 1009.2 |
| 20260505090040 | 50 | 220 | 2.6 | 7.0 | 0.00 | 0.00 | 0.00 | 89 | 1009.2 |
| 20260505084537 | 50 | 225 | 2.6 | 6.1 | 0.00 | 0.00 | 0.00 | 89 | 1009.3 |
| 20260505083036 | 50 | 190 | 2.6 | 7.0 | 0.00 | 0.00 | 0.00 | 89 | 1009.3 |
| 20260505081543 | 51 | 211 | 2.6 | 7.0 | 0.00 | 0.00 | 0.00 | 89 | 1009.4 |
| 20260505080038 | 50 | 205 | 3.5 | 10.4 | 0.00 | 0.00 | 0.00 | 89 | 1009.5 |
| 20260505074533 | 51 | 203 | 2.6 | 10.4 | 0.00 | 0.00 | 0.00 | 90 | 1009.7 |
| 20260505073042 | 51 | 240 | 2.6 | 6.1 | 0.00 | 0.00 | 0.00 | 90 | 1009.6 |
| 20260505071544 | 50 | 221 | 3.5 | 8.7 | 0.00 | 0.00 | 0.00 | 91 | 1009.5 |
| 20260505070027 | 50 | 211 | 2.6 | 8.7 | 0.00 | 0.00 | 0.00 | 91 | 1009.6 |
| 20260505064527 | 50 | 200 | 1.7 | 6.1 | 0.00 | 0.00 | 0.00 | 90 | 1009.5 |
| 20260505063024 | 50 | 210 | 2.6 | 7.0 | 0.00 | 0.00 | 0.00 | 90 | 1009.5 |
| 20260505060010 | 50 | 217 | 2.6 | 7.8 | 0.00 | 0.00 | 0.00 | 89 | 1009.5 |
| 20260505054509 | 51 | 203 | 3.5 | 8.7 | 0.00 | 0.00 | 0.00 | 89 | 1009.5 |
| 20260505053004 | 51 | 201 | 3.5 | 8.7 | 0.00 | 0.00 | 0.00 | 88 | 1009.4 |
| 20260505051600 | 51 | 225 | 3.5 | 12.2 | 0.00 | 0.00 | 0.00 | 88 | 1009.5 |
| 20260505041552 | 51 | 231 | 3.5 | 12.2 | 0.00 | 0.00 | 0.00 | 87 | 1009.7 |
| 20260505040050 | 51 | 191 | 3.5 | 9.6 | 0.00 | 0.00 | 0.00 | 86 | 1009.8 |
| 20260505034545 | 50 | 360 | 3.5 | 15.6 | 0.00 | 0.00 | 0.00 | 87 | 1009.8 |
| 20260505033047 | 50 | 206 | 3.5 | 7.0 | 0.00 | 0.00 | 0.00 | 86 | 1009.9 |
| 20260505031545 | 50 | 183 | 3.5 | 8.7 | 0.00 | 0.00 | 0.00 | 86 | 1009.9 |
| 20260505030044 | 51 | 360 | 3.5 | 8.7 | 0.00 | 0.00 | 0.00 | 85 | 1010.0 |
| 20260505024545 | 51 | 200 | 3.5 | 9.6 | 0.00 | 0.00 | 0.00 | 85 | 1010.0 |
| 20260505023047 | 51 | 205 | 2.6 | 7.8 | 0.00 | 0.00 | 0.00 | 84 | 1010.2 |
| 20260505021540 | 51 | 192 | 3.5 | 12.2 | 0.00 | 0.00 | 0.00 | 83 | 1010.0 |
| 20260505020039 | 52 | 230 | 4.3 | 13.0 | 0.00 | 0.00 | 0.00 | 82 | 1010.1 |
| 20260505014538 | 52 | 213 | 4.3 | 15.6 | 0.00 | 0.00 | 0.00 | 81 | 1009.8 |
| 20260505013036 | 52 | 204 | 4.3 | 11.3 | 0.00 | 0.00 | 0.00 | 80 | 1009.7 |
| 20260505011545 | 52 | 186 | 4.3 | 13.0 | 0.00 | 0.00 | 0.00 | 78 | 1009.4 |
| 20260505010038 | 52 | 223 | 3.5 | 16.5 | 0.00 | 0.00 | 0.00 | 76 | 1009.2 |
| 20260505004535 | 52 | 173 | 3.5 | 9.6 | 0.00 | 0.00 | 0.00 | 74 | 1009.2 |
| 20260505003033 | 52 | 200 | 4.3 | 9.6 | 0.00 | 0.00 | 0.00 | 72 | 1009.0 |
| 20260505001534 | 53 | 211 | 4.3 | 10.4 | 0.00 | 0.00 | 0.00 | 69 | 1008.5 |
| 20260505000034 | 53 | 217 | 3.5 | 8.7 | 0.00 | 0.00 | 0.00 | 69 | 1008.5 |
| 20260504234532 | 53 | 194 | 4.3 | 10.4 | 0.00 | 0.00 | 0.00 | 68 | 1008.4 |
| 20260504233031 | 54 | 182 | 4.3 | 10.4 | 0.00 | 0.00 | 0.00 | 67 | 1008.3 |
| 20260504231531 | 54 | 217 | 6.1 | 14.8 | 0.00 | 0.00 | 0.00 | 64 | 1008.0 |
| 20260504230031 | 55 | 202 | 6.1 | 16.5 | 0.00 | 0.00 | 0.00 | 61 | 1007.9 |
| 20260504224529 | 56 | 185 | 3.5 | 13.0 | 0.00 | 0.00 | 0.00 | 60 | 1007.7 |
| 20260504223029 | 57 | 220 | 4.3 | 16.5 | 0.00 | 0.00 | 0.00 | 58 | 1007.7 |
| 20260504221528 | 57 | 148 | 5.2 | 11.3 | 0.00 | 0.00 | 0.00 | 56 | 1007.5 |
| 20260504220028 | 58 | 173 | 6.1 | 14.8 | 0.00 | 0.00 | 0.00 | 56 | 1007.3 |
| 20260504214527 | 59 | 198 | 6.1 | 19.1 | 0.00 | 0.00 | 0.00 | 55 | 1007.4 |
| 20260504213028 | 59 | 205 | 6.1 | 18.2 | 0.00 | 0.00 | 0.00 | 54 | 1007.3 |
| 20260504211527 | 59 | 193 | 7.8 | 18.2 | 0.00 | 0.00 | 0.00 | 53 | 1007.3 |
| 20260504210025 | 60 | 360 | 7.8 | 22.6 | 0.00 | 0.00 | 0.00 | 53 | 1007.4 |
| 20260504204528 | 60 | 194 | 7.8 | 21.7 | 0.00 | 0.00 | 0.00 | 50 | 1007.3 |
| 20260504203025 | 61 | 230 | 7.0 | 16.5 | 0.00 | 0.00 | 0.00 | 49 | 1007.2 |
| 20260504201524 | 62 | 196 | 9.6 | 19.1 | 0.00 | 0.00 | 0.00 | 44 | 1007.0 |
| 20260504200035 | 62 | 190 | 6.1 | 24.3 | 0.00 | 0.00 | 0.00 | 45 | 1007.2 |
| 20260504194522 | 62 | 184 | 6.1 | 22.6 | 0.00 | 0.00 | 0.00 | 47 | 1007.2 |
| 20260504193021 | 62 | 206 | 8.7 | 16.5 | 0.00 | 0.00 | 0.00 | 47 | 1007.2 |
| 20260504191530 | 61 | 198 | 9.6 | 23.5 | 0.00 | 0.00 | 0.00 | 49 | 1007.5 |
| 20260504190014 | 62 | 116 | 6.1 | 15.6 | 0.00 | 0.00 | 0.00 | 48 | 1007.7 |
| 20260504184513 | 62 | 360 | 8.7 | 16.5 | 0.00 | 0.00 | 0.00 | 46 | 1007.6 |
| 20260504183010 | 62 | 190 | 6.1 | 14.8 | 0.00 | 0.00 | 0.00 | 51 | 1007.5 |
| 20260504181503 | 63 | 192 | 6.1 | 14.8 | 0.00 | 0.00 | 0.00 | 51 | 1007.7 |
| 20260504174604 | 62 | 360 | 7.0 | 20.0 | 0.00 | 0.01 | 0.00 | 53 | 1007.4 |
| 20260504173100 | 62 | 111 | 7.0 | 15.6 | 0.00 | 0.01 | 0.00 | 51 | 1007.7 |
| 20260504171554 | 64 | 206 | 5.2 | 13.9 | 0.00 | 0.01 | 0.00 | 46 | 1007.6 |